Location: Unspecified
(42.2600°N, 0.0000°E)
Time: 12:09:16
(UTC+00:00)

ISS - Pass Details

Date: 01 June 2019
Orbit: 407 x 418 km, 51.6° (Epoch: 20 June)

Event Time Altitude Azimuth Distance (km) Brightness Sun altitude
Rises 20:25:57 0° 307° (NW) 2,354 2.4 -9.2°
Reaches altitude 10° 20:28:10 10° 317° (NW) 1,491 0.7 -9.5°
Maximum altitude 20:31:16 34° 25° (NNE) 703 -2.5 -9.9°
Drops below altitude 10° 20:34:22 10° 92° (E) 1,492 -1.4 -10.3°
Enters shadow 20:34:26 10° 93° (E) 1,518 -1.4 -10.4°
